GW6261 Weather Reports


time (UTC)temp
F
wind
direction
speed
knots
gust
knots
rain 1hr
in
rain 24hr
in
rain mn
in
humidity
%
barometer
mb
20260510081557 75 122 1.7 5.2 0.00 0.00 0.00 95 1008.0
20260510081056 75 117 3.5 3.5 0.00 0.00 0.00 94 1008.0
20260510080556 75 135 2.6 2.6 0.00 0.00 0.00 94 1008.0
20260510080056 75 123 1.7 2.6 0.00 0.00 0.00 94 1008.0
20260510075557 75 134 1.7 3.5 0.00 0.00 0.00 94 1008.0
20260510075057 75 124 2.6 2.6 0.00 0.00 0.00 94 1008.0
20260510074556 75 153 1.7 3.5 0.00 0.00 0.00 94 1008.0
20260510074056 75 181 0.9 4.3 0.00 0.00 0.00 94 1008.0
20260510073556 75 133 3.5 4.3 0.00 0.00 0.00 93 1008.0
20260510073056 75 145 1.7 6.1 0.00 0.00 0.00 93 1008.0
20260510072556 75 150 1.7 5.2 0.00 0.00 0.00 93 1008.0
20260510072056 75 135 2.6 3.5 0.00 0.00 0.00 93 1008.0
20260510071556 75 152 1.7 4.3 0.00 0.00 0.00 93 1008.0
20260510071057 75 128 2.6 3.5 0.00 0.00 0.00 92 1008.0
20260510070111 75 138 1.7 5.2 0.00 0.00 0.00 91 1008.0
20260510065556 75 132 1.7 3.5 0.00 0.00 0.00 91 1008.0
20260510065056 75 115 6.1 6.1 0.00 0.00 0.00 91 1008.0
20260510064559 76 142 6.1 7.8 0.00 0.00 0.00 90 1008.0
20260510064056 76 141 1.7 8.7 0.00 0.00 0.00 90 1008.0
20260510063557 76 155 6.1 7.0 0.00 0.00 0.00 90 1008.0
20260510063056 76 98 0.9 7.0 0.00 0.00 0.00 90 1008.0
20260510062556 76 118 5.2 8.7 0.00 0.00 0.00 90 1008.0
20260510062056 76 140 3.5 7.0 0.00 0.00 0.00 90 1008.0
20260510061556 76 151 3.5 7.0 0.00 0.00 0.00 90 1008.0
20260510061056 76 125 4.3 7.8 0.00 0.00 0.00 90 1008.0
20260510060556 76 71 5.2 6.1 0.00 0.00 0.00 90 1008.0
20260510060100 76 132 2.6 7.8 0.00 0.00 0.00 90 1008.0
20260510055557 76 126 5.2 7.0 0.00 0.00 0.00 91 1008.0
20260510055056 76 129 2.6 5.2 0.00 0.00 0.00 90 1008.0
20260510054556 76 155 6.1 7.0 0.00 0.00 0.00 91 1008.0
20260510054056 77 135 5.2 10.4 0.00 0.00 0.00 91 1008.0
20260510053557 77 106 2.6 9.6 0.00 0.00 0.00 91 1009.0
20260510053056 77 154 4.3 6.1 0.00 0.00 0.00 91 1008.0
20260510052556 76 120 7.8 8.7 0.00 0.00 0.00 91 1009.0
20260510052057 76 97 4.3 6.1 0.00 0.00 0.00 91 1009.0
20260510051556 76 107 3.5 6.1 0.00 0.00 0.00 91 1009.0
20260510051056 76 176 4.3 8.7 0.00 0.00 0.00 91 1009.0
20260510050556 77 147 2.6 7.8 0.00 0.00 0.00 91 1009.0
20260510050056 77 89 4.3 6.1 0.00 0.00 0.00 91 1009.0
20260510045556 77 150 5.2 6.1 0.00 0.00 0.00 91 1009.0
20260510045056 77 54 3.5 7.8 0.00 0.00 0.00 92 1009.0
20260510044556 77 113 5.2 9.6 0.00 0.00 0.00 92 1009.0
20260510044056 77 107 4.3 7.0 0.00 0.00 0.00 92 1009.0
20260510043556 77 97 6.1 10.4 0.00 0.00 0.00 92 1009.0
20260510043056 77 115 1.7 9.6 0.00 0.00 0.00 92 1009.0
20260510042556 77 76 3.5 7.0 0.00 0.00 0.00 92 1009.0
20260510042057 77 88 2.6 6.1 0.00 0.00 0.00 92 1009.0
20260510041556 77 98 4.3 7.8 0.00 0.00 0.00 92 1009.0
20260510041057 77 92 6.1 7.8 0.00 0.00 0.00 92 1009.0
20260510040557 77 105 7.0 7.8 0.00 0.00 0.00 92 1009.0
20260510040056 77 112 2.6 7.0 0.00 0.00 0.00 92 1009.0
20260510035557 77 128 4.3 6.1 0.00 0.00 0.00 92 1009.0
20260510035056 77 63 4.3 6.1 0.00 0.00 0.00 91 1009.0
20260510034556 77 80 2.6 3.5 0.00 0.00 0.00 91 1009.0
20260510034056 77 109 6.1 6.1 0.00 0.00 0.00 90 1009.0
20260510033556 77 120 2.6 7.0 0.00 0.00 0.00 90 1009.0
20260510033056 77 109 5.2 8.7 0.00 0.00 0.00 90 1009.0
20260510032556 78 134 7.8 9.6 0.00 0.00 0.00 90 1009.0
20260510032056 78 98 3.5 7.8 0.00 0.00 0.00 89 1009.0
20260510031600 78 114 7.0 11.3 0.00 0.00 0.00 89 1009.0
20260510031056 78 99 9.6 9.6 0.00 0.00 0.00 89 1009.0
20260510030556 78 72 2.6 7.8 0.00 0.00 0.00 88 1009.0
20260510030057 78 82 2.6 11.3 0.00 0.00 0.00 87 1009.0
20260510025556 78 84 6.1 7.8 0.00 0.00 0.00 87 1009.0
20260510025056 79 97 4.3 7.8 0.00 0.00 0.00 86 1009.0
20260510024556 79 93 4.3 5.2 0.00 0.00 0.00 86 1009.0
20260510024056 79 131 2.6 4.3 0.00 0.00 0.00 85 1008.0
20260510023556 80 64 5.2 11.3 0.00 0.00 0.00 84 1008.0
20260510023057 80 111 3.5 7.8 0.00 0.00 0.00 82 1008.0
20260510022557 80 111 7.0 11.3 0.00 0.00 0.00 81 1008.0
20260510022056 80 119 6.1 6.1 0.00 0.00 0.00 76 1008.0
20260510021556 80 97 4.3 5.2 0.00 0.00 0.00 75 1008.0
20260510021056 80 102 4.3 9.6 0.00 0.00 0.00 74 1008.0
20260510020557 81 104 5.2 7.8 0.00 0.00 0.00 74 1008.0
20260510020056 81 145 2.6 12.2 0.00 0.00 0.00 74 1007.0
20260510015556 81 122 2.6 7.0 0.00 0.00 0.00 74 1007.0
20260510015056 81 154 6.1 9.6 0.00 0.00 0.00 74 1007.0
20260510014556 81 157 4.3 8.7 0.00 0.00 0.00 74 1007.0
20260510014057 81 137 4.3 7.8 0.00 0.00 0.00 73 1007.0
20260510013556 82 155 4.3 9.6 0.00 0.00 0.00 72 1007.0
20260510013059 82 113 7.0 11.3 0.00 0.00 0.00 71 1007.0
20260510012556 82 130 2.6 5.2 0.00 0.00 0.00 68 1006.0
20260510012056 82 152 5.2 7.0 0.00 0.00 0.00 67 1007.0
20260510011556 83 153 2.6 7.8 0.00 0.00 0.00 66 1007.0
20260510011057 83 134 5.2 9.6 0.00 0.00 0.00 65 1006.0
20260510010556 83 146 7.8 13.9 0.00 0.00 0.00 63 1006.0
20260510010056 84 135 4.3 13.9 0.00 0.00 0.00 62 1006.0
20260510005557 85 155 1.7 9.6 0.00 0.00 0.00 58 1006.0
20260510005056 85 174 0.9 4.3 0.00 0.00 0.00 55 1006.0
20260510004556 85 140 1.7 9.6 0.00 0.00 0.00 53 1006.0
20260510004056 86 164 0.9 6.1 0.00 0.00 0.00 52 1006.0
20260510003556 86 143 5.2 9.6 0.00 0.00 0.00 50 1006.0
20260510003056 86 137 9.6 9.6 0.00 0.00 0.00 49 1006.0
20260510002556 86 138 5.2 9.6 0.00 0.00 0.00 49 1006.0
20260510002056 86 134 4.3 7.8 0.00 0.00 0.00 54 1006.0
20260510001556 87 148 5.2 5.2 0.00 0.00 0.00 57 1006.0
20260510001056 87 143 4.3 7.8 0.00 0.00 0.00 57 1006.0
20260510000557 87 99 3.5 5.2 0.00 0.00 0.00 56 1006.0
20260510000056 87 150 5.2 10.4 0.00 0.00 0.00 55 1005.0
20260509235557 88 147 4.3 7.8 0.00 0.00 0.00 55 1005.0
20260509235056 87 154 7.8 8.7 0.00 0.00 0.00 58 1005.0
20260509234556 88 89 5.2 9.6 0.00 0.00 0.00 61 1005.0
20260509234059 89 129 1.7 5.2 0.00 0.00 0.00 58 1005.0
20260509233556 90 108 1.7 5.2 0.00 0.00 0.00 52 1005.0
20260509233056 90 151 5.2 7.0 0.00 0.00 0.00 52 1005.0
20260509232556 91 188 0.9 6.1 0.00 0.00 0.00 52 1005.0
20260509232056 91 139 4.3 4.3 0.00 0.00 0.00 51 1005.0
20260509231556 91 206 0.9 2.6 0.00 0.00 0.00 53 1005.0
20260509231056 91 210 0.9 2.6 0.00 0.00 0.00 52 1005.0
20260509230555 91 157 2.6 4.3 0.00 0.00 0.00 51 1005.0
20260509230056 92 132 5.2 8.7 0.00 0.00 0.00 51 1005.0
20260509225556 93 165 1.7 5.2 0.00 0.00 0.00 50 1005.0
20260509225057 92 254 0.9 2.6 0.00 0.00 0.00 50 1005.0
20260509224556 93 145 5.2 7.8 0.00 0.00 0.00 49 1005.0
20260509224056 92 204 0.0 4.3 0.00 0.00 0.00 50 1005.0
20260509223557 93 229 0.0 3.5 0.00 0.00 0.00 47 1005.0
20260509223056 93 236 1.7 7.8 0.00 0.00 0.00 49 1005.0
20260509222556 93 181 0.9 4.3 0.00 0.00 0.00 47 1005.0
20260509222056 93 101 1.7 3.5 0.00 0.00 0.00 46 1005.0
20260509221556 94 207 2.6 4.3 0.00 0.00 0.00 47 1005.0
20260509221056 93 239 0.9 2.6 0.00 0.00 0.00 48 1005.0
20260509220556 92 199 2.6 4.3 0.00 0.00 0.00 49 1005.0
20260509220057 93 149 2.6 4.3 0.00 0.00 0.00 48 1005.0
20260509215556 93 196 0.0 2.6 0.00 0.00 0.00 48 1005.0
20260509215056 94 202 1.7 2.6 0.00 0.00 0.00 47 1005.0
20260509214558 94 133 1.7 3.5 0.00 0.00 0.00 47 1005.0
20260509214056 94 230 2.6 8.7 0.00 0.00 0.00 46 1005.0
20260509213557 93 335 1.7 2.6 0.00 0.00 0.00 46 1005.0
20260509213056 93 73 1.7 3.5 0.00 0.00 0.00 46 1005.0
20260509212556 92 306 0.9 3.5 0.00 0.00 0.00 46 1005.0
20260509212056 93 280 2.6 5.2 0.00 0.00 0.00 47 1005.0
20260509211556 93 226 1.7 7.0 0.00 0.00 0.00 45 1005.0
20260509211056 93 168 0.9 2.6 0.00 0.00 0.00 46 1005.0
20260509210556 93 198 1.7 2.6 0.00 0.00 0.00 45 1005.0
20260509210057 92 189 2.6 5.2 0.00 0.00 0.00 48 1005.0
20260509205557 92 273 1.7 5.2 0.00 0.00 0.00 47 1005.0
20260509205056 93 247 3.5 7.8 0.00 0.00 0.00 46 1005.0
20260509204556 93 229 2.6 5.2 0.00 0.00 0.00 47 1005.0
20260509204056 92 242 1.7 6.1 0.00 0.00 0.00 49 1005.0
20260509203556 91 103 0.0 3.5 0.00 0.00 0.00 49 1005.0
20260509203056 93 178 1.7 7.0 0.00 0.00 0.00 48 1005.0
20260509202557 92 253 2.6 7.0 0.00 0.00 0.00 49 1005.0
20260509202056 91 220 0.0 1.7 0.00 0.00 0.00 50 1005.0
20260509201557 91 96 1.7 2.6 0.00 0.00 0.00 50 1005.0
20260509201058 91 182 0.9 3.5 0.00 0.00 0.00 50 1005.0
20260509200557 90 60 0.0 2.6 0.00 0.00 0.00 50 1006.0
20260509200056 90 337 0.9 2.6 0.00 0.00 0.00 51 1006.0
20260509195556 89 267 4.3 5.2 0.00 0.00 0.00 53 1006.0
20260509195056 90 259 4.3 7.8 0.00 0.00 0.00 54 1006.0
20260509194556 89 312 0.0 3.5 0.00 0.00 0.00 54 1006.0
20260509194056 89 261 3.5 3.5 0.00 0.00 0.00 55 1006.0
20260509193557 89 315 3.5 4.3 0.00 0.00 0.00 54 1006.0
20260509193057 90 244 6.1 7.0 0.00 0.00 0.00 54 1006.0
20260509192556 90 341 1.7 3.5 0.00 0.00 0.00 55 1006.0
20260509192056 90 287 2.6 3.5 0.00 0.00 0.00 57 1006.0
20260509191556 89 282 0.9 3.5 0.00 0.00 0.00 58 1006.0
20260509191056 89 268 3.5 5.2 0.00 0.00 0.00 56 1006.0
20260509190556 89 312 4.3 4.3 0.00 0.00 0.00 56 1006.0
20260509190056 89 263 1.7 2.6 0.00 0.00 0.00 57 1006.0
20260509185556 89 247 4.3 7.8 0.00 0.00 0.00 56 1006.0
20260509185056 89 247 5.2 7.0 0.00 0.00 0.00 57 1006.0
20260509184557 89 210 0.0 6.1 0.00 0.00 0.00 58 1006.0
20260509184056 89 258 1.7 4.3 0.00 0.00 0.00 61 1006.0
20260509183557 88 251 2.6 3.5 0.00 0.00 0.00 61 1006.0
20260509183056 87 239 1.7 2.6 0.00 0.00 0.00 63 1006.0
20260509182556 86 207 2.6 4.3 0.00 0.00 0.00 62 1006.0
20260509182056 86 258 5.2 6.1 0.00 0.00 0.00 64 1007.0
20260509181556 87 256 6.1 7.0 0.00 0.00 0.00 64 1007.0
20260509181057 86 289 0.9 2.6 0.00 0.00 0.00 66 1007.0
20260509180556 86 2 2.6 2.6 0.00 0.00 0.00 67 1007.0
20260509180056 85 259 2.6 3.5 0.00 0.00 0.00 68 1007.0
20260509175556 85 342 1.7 4.3 0.00 0.00 0.00 69 1007.0
20260509175057 85 247 4.3 5.2 0.00 0.00 0.00 70 1007.0
20260509174556 85 135 0.0 2.6 0.00 0.00 0.00 72 1007.0
20260509174056 85 250 1.7 4.3 0.00 0.00 0.00 72 1008.0
20260509173556 84 266 0.0 2.6 0.00 0.00 0.00 73 1008.0
20260509173057 83 228 0.9 5.2 0.00 0.00 0.00 75 1008.0
20260509172557 83 275 0.0 2.6 0.00 0.00 0.00 76 1008.0
20260509172056 83 271 2.6 4.3 0.00 0.00 0.00 75 1008.0
20260509171557 83 208 1.7 3.5 0.00 0.00 0.00 76 1008.0
20260509171058 83 319 0.9 3.5 0.00 0.00 0.00 76 1008.0
20260509170556 83 249 3.5 4.3 0.00 0.00 0.00 76 1008.0
20260509170056 83 229 1.7 2.6 0.00 0.00 0.00 77 1008.0
20260509165556 82 219 2.6 6.1 0.00 0.00 0.00 78 1008.0
20260509165056 83 230 2.6 6.1 0.00 0.00 0.00 77 1008.0
20260509164557 83 228 0.9 4.3 0.00 0.00 0.00 78 1008.0
20260509164056 83 236 0.9 1.7 0.00 0.00 0.00 78 1008.0
20260509163556 83 226 0.9 7.0 0.00 0.00 0.00 77 1008.0
20260509163057 83 220 0.0 2.6 0.00 0.00 0.00 77 1008.0
20260509162556 84 185 2.6 4.3 0.00 0.00 0.00 77 1008.0
20260509162056 83 142 1.7 1.7 0.00 0.00 0.00 78 1008.0
20260509161556 83 357 0.9 1.7 0.00 0.00 0.00 79 1008.0
20260509161057 83 300 1.7 4.3 0.00 0.00 0.00 78 1008.0
20260509160557 83 273 1.7 1.7 0.00 0.00 0.00 80 1008.0
20260509160057 82 119 1.7 1.7 0.00 0.00 0.00 81 1008.0
20260509155556 82 121 0.9 1.7 0.00 0.00 0.00 81 1008.0
20260509155057 82 66 0.0 0.9 0.00 0.00 0.00 82 1008.0
20260509154605 81 302 0.9 2.6 0.00 0.00 0.00 84 1008.0
20260509154057 80 304 0.9 2.6 0.00 0.00 0.00 84 1008.0
20260509153559 80 77 0.0 4.3 0.00 0.00 0.00 86 1007.0
20260509153056 79 106 2.6 2.6 0.00 0.00 0.00 87 1007.0
20260509152556 79 36 1.7 4.3 0.00 0.00 0.00 88 1007.0
20260509152056 78 131 2.6 3.5 0.00 0.00 0.00 89 1007.0
20260509151556 78 135 1.7 7.0 0.00 0.00 0.00 89 1007.0
20260509151056 78 140 5.2 6.1 0.00 0.00 0.00 89 1007.0
20260509150556 78 81 0.0 2.6 0.00 0.00 0.00 90 1008.0
20260509150056 78 116 2.6 4.3 0.00 0.00 0.00 89 1007.0
20260509145556 78 95 4.3 5.2 0.00 0.00 0.00 90 1007.0
20260509145056 78 110 2.6 4.3 0.00 0.00 0.00 90 1007.0
20260509144556 78 134 2.6 7.0 0.00 0.00 0.00 90 1007.0
20260509144056 78 139 3.5 7.8 0.00 0.00 0.00 90 1007.0
20260509143556 78 127 4.3 7.0 0.00 0.00 0.00 90 1008.0
20260509143057 78 135 1.7 4.3 0.00 0.00 0.00 90 1008.0
20260509142557 78 147 1.7 5.2 0.00 0.00 0.00 90 1007.0
20260509142057 78 123 1.7 2.6 0.00 0.00 0.00 91 1007.0
20260509141558 78 224 1.7 3.5 0.00 0.00 0.00 91 1008.0
20260509141056 78 234 0.9 2.6 0.00 0.00 0.00 92 1007.0
20260509140558 78 29 0.9 3.5 0.00 0.00 0.00 93 1007.0
20260509140057 77 104 1.7 3.5 0.00 0.00 0.00 94 1007.0
20260509135556 77 131 0.0 4.3 0.00 0.00 0.00 95 1007.0
20260509135056 77 248 2.6 6.1 0.00 0.00 0.00 96 1007.0
20260509134556 77 262 4.3 7.8 0.00 0.00 0.00 97 1008.0
20260509134056 76 260 4.3 5.2 0.00 0.00 0.00 97 1008.0
20260509133559 76 265 2.6 2.6 0.00 0.00 0.00 97 1007.0
20260509133057 76 234 1.7 1.7 0.00 0.00 0.00 98 1007.0
20260509132556 76 283 2.6 3.5 0.00 0.00 0.00 98 1007.0
20260509132057 76 239 0.0 2.6 0.00 0.00 0.00 98 1008.0
20260509131557 76 261 0.9 4.3 0.00 0.00 0.00 98 1008.0
20260509131056 76 167 0.9 2.6 0.00 0.00 0.00 98 1008.0
20260509130556 76 177 0.9 2.6 0.00 0.00 0.00 98 1008.0
20260509130056 75 148 1.7 2.6 0.00 0.00 0.00 98 1007.0
20260509125556 75 216 1.7 1.7 0.00 0.00 0.00 98 1007.0
20260509125058 75 124 0.0 1.7 0.00 0.00 0.00 98 1007.0
20260509124556 75 266 0.0 0.9 0.00 0.00 0.00 98 1008.0
20260509124056 75 214 0.0 1.7 0.00 0.00 0.00 98 1008.0
20260509123556 75 131 0.0 1.7 0.00 0.00 0.00 98 1008.0
20260509123056 75 106 1.7 1.7 0.00 0.00 0.00 98 1007.0
20260509122556 75 236 0.0 0.9 0.00 0.00 0.00 98 1007.0
20260509122056 75 230 0.0 0.9 0.00 0.00 0.00 98 1007.0
20260509121556 75 108 1.7 2.6 0.00 0.00 0.00 98 1007.0
20260509121056 75 143 0.0 2.6 0.00 0.00 0.00 98 1007.0
20260509120556 75 88 0.9 1.7 0.00 0.00 0.00 98 1007.0
20260509120056 75 81 0.0 1.7 0.00 0.00 0.00 98 1007.0
20260509115558 75 80 0.9 1.7 0.00 0.00 0.00 98 1007.0
20260509115056 75 354 0.9 1.7 0.00 0.00 0.00 98 1007.0
20260509114557 75 19 1.7 2.6 0.00 0.00 0.00 98 1007.0
20260509114056 75 88 0.0 1.7 0.00 0.00 0.00 98 1007.0
20260509113556 75 7 0.9 1.7 0.00 0.00 0.00 98 1007.0
20260509113056 75 41 0.0 1.7 0.00 0.00 0.00 98 1007.0
20260509112556 75 354 1.7 2.6 0.00 0.00 0.00 98 1007.0
20260509112056 75 106 1.7 2.6 0.00 0.00 0.00 98 1007.0
20260509111558 75 89 0.0 1.7 0.00 0.00 0.00 98 1007.0
20260509111056 75 81 0.0 1.7 0.00 0.00 0.00 98 1007.0
20260509110556 75 232 0.0 0.9 0.00 0.00 0.00 98 1007.0
20260509110056 75 70 0.0 2.6 0.00 0.00 0.00 98 1007.0
20260509105557 75 166 0.0 1.7 0.00 0.00 0.00 98 1007.0
20260509105056 75 326 0.0 0.9 0.00 0.00 0.00 98 1007.0
20260509104557 75 30 0.9 0.9 0.00 0.00 0.00 98 1007.0
20260509104056 75 117 0.0 1.7 0.00 0.00 0.00 98 1007.0
20260509103556 75 16 0.0 1.7 0.00 0.00 0.00 98 1007.0
20260509103056 75 118 0.0 1.7 0.00 0.00 0.00 98 1007.0
20260509102556 75 89 0.0 1.7 0.00 0.00 0.00 98 1007.0
20260509102056 75 224 0.0 1.7 0.00 0.00 0.00 98 1007.0
20260509101556 75 41 0.9 1.7 0.00 0.00 0.00 98 1007.0
20260509101056 75 15 0.9 1.7 0.00 0.00 0.00 98 1007.0
20260509100556 75 49 0.0 1.7 0.00 0.00 0.00 98 1007.0
20260509100056 75 245 0.9 1.7 0.00 0.00 0.00 98 1007.0
20260509095556 75 102 0.0 1.7 0.00 0.00 0.00 98 1007.0
20260509095057 75 41 0.0 1.7 0.00 0.00 0.00 98 1007.0
20260509094557 75 266 0.0 0.9 0.00 0.00 0.00 98 1007.0
20260509094056 75 4 0.9 1.7 0.00 0.00 0.00 98 1006.0
20260509093556 75 185 0.0 1.7 0.00 0.00 0.00 98 1007.0
20260509093056 75 3 0.0 1.7 0.00 0.00 0.00 98 1007.0
20260509092556 75 28 0.9 1.7 0.00 0.00 0.00 98 1006.0
20260509092056 75 297 0.0 1.7 0.00 0.00 0.00 98 1007.0
20260509091556 75 53 0.0 1.7 0.00 0.00 0.00 98 1006.0
20260509091056 75 103 0.9 2.6 0.00 0.00 0.00 98 1006.0
20260509090556 75 96 1.7 2.6 0.00 0.00 0.00 98 1006.0
20260509090056 75 134 0.9 2.6 0.00 0.00 0.00 98 1006.0
20260509085556 75 76 0.0 2.6 0.00 0.00 0.00 98 1006.0
20260509085056 75 75 0.9 2.6 0.00 0.00 0.00 98 1006.0
20260509084557 75 110 2.6 2.6 0.00 0.00 0.00 97 1006.0
20260509084057 75 134 1.7 1.7 0.00 0.00 0.00 97 1007.0
20260509083556 75 62 0.9 1.7 0.00 0.00 0.00 97 1006.0
20260509083056 75 81 0.9 2.6 0.00 0.00 0.00 97 1007.0
20260509082556 75 55 1.7 2.6 0.00 0.00 0.00 97 1006.0
20260509082056 75 132 0.0 2.6 0.00 0.00 0.00 97 1006.0